Location: Newark
(48.1236°N, 0.7169°W)
Time: 02:38:06
(UTC+00:00)

Envisat - Pass Details

Date: 19 November 2019
Orbit: 764 x 766 km, 98.1° (Epoch: 09 December)

Event Time Altitude Azimuth Distance (km) Brightness Sun altitude
Rises 17:16:38 0° 146° (SE) 3,222 6.1 -9.3°
Reaches altitude 10° 17:19:00 10° 140° (SE) 2,300 5.3 -9.7°
Maximum altitude 17:23:49 46° 68° (ENE) 1,032 3.3 -10.5°
Drops below altitude 10° 17:28:40 10° 357° (N) 2,314 5.4 -11.2°
Sets 17:31:03 0° 352° (N) 3,245 6.2 -11.6°
